Home > Weather > Modesto > Past weeks

Flag for USA Past Weather in Modesto, California, USA — Yesterday and Last 2 Weeks

Now
67 °F

Sunny.


Feels Like: 67 °F
Forecast: 64 / 93 °F
Wind: 8 mph from Northwest

Location: Modesto City-County-Sham Field

Current Time: Aug 24, 2016 at 9:26:18 AM

Latest Report: Aug 24, 2016 at 8:53 AM


Visibility: 10 mi

Pressure: 30.05 "Hg

Humidity: 61%

Dew Point: 53 °F

Location of ModestoLocation

Past Weather in Modesto — Graph

°F

Modesto Temperature Yesterday

Maximum temperature yesterday: 93 °F (at 4:53 PM)
Minimum temperature yesterday: 62 °F (at 6:53 AM)
Average temperature yesterday: 77 °F

High & Low Weather Summary for the Past Weeks

 TemperatureHumidityPressure
High102 °F (Aug 13, 3:53 PM)78% (Aug 24, 6:53 AM)30.04 "Hg (Aug 24, 6:53 AM)
Low60 °F (Aug 24, 6:53 AM)10% (Aug 14, 4:53 PM)29.70 "Hg (Aug 17, 6:53 PM)
Average81 °F38%29.85 "Hg
* Reported Aug 9 7:53 AM — Aug 24 7:53 AM, Modesto, Weather by CustomWeather, © 2016

Note: Actual official high and low records may vary slightly from our data, if they occured in-between our weather recording intervals... More about our weather records

Advertising

Modesto Weather History for the Previous 24 Hours

Scroll right to see more
 ConditionsComfort  
Time TempWeatherWind HumidityBarometerVisibility
7:53 AM
Wed, Aug 24
63 °FSunny.8 mph70%30.04 "Hg10 mi
6:53 AM60 °FClear.8 mph78%30.02 "Hg10 mi
5:53 AM61 °FClear.8 mph72%30.01 "Hg10 mi
4:53 AM62 °FClear.N/A67%30.00 "Hg10 mi
3:53 AM64 °FClear.7 mph63%30.00 "Hg10 mi
2:53 AM68 °FClear.8 mph53%30.00 "Hg10 mi
1:53 AM70 °FClear.6 mph47%30.00 "Hg10 mi
12:53 AM71 °FClear.6 mph47%30.01 "Hg10 mi
11:53 PM
Tue, Aug 23
73 °FClear.6 mph44%30.00 "Hg10 mi
10:53 PM75 °FClear.7 mph42%30.00 "Hg10 mi
9:53 PM79 °FClear.6 mph38%30.00 "Hg10 mi
8:53 PM82 °FClear.7 mph35%29.98 "Hg10 mi
7:53 PM85 °FSunny.8 mph30%29.96 "Hg10 mi
6:53 PM89 °FSunny.9 mph25%29.95 "Hg10 mi
5:53 PM92 °FSunny.9 mph23%29.95 "Hg10 mi
4:53 PM93 °FSunny.10 mph23%29.95 "Hg10 mi
3:53 PM92 °FSunny.10 mph21%29.96 "Hg10 mi
2:53 PM91 °FSunny.10 mph24%29.98 "Hg10 mi
1:53 PM88 °FSunny.9 mph29%30.00 "Hg10 mi
12:53 PM85 °FSunny.9 mph34%30.01 "Hg10 mi
11:53 AM79 °FSunny.7 mph44%30.03 "Hg10 mi
10:53 AM75 °FSunny.9 mph48%30.03 "Hg10 mi
9:53 AM71 °FSunny.8 mph55%30.02 "Hg10 mi
Weather by CustomWeather, © 2016

See weather overviewHow to use our weather pages